GFSMA_con_3kmhel_000.txt.gz
Helicity
73 74 72 83 100 95 91 79 83 86 112 124 120 95 95 85 113 119 109 84 72 48 36 35 50 82 92 69 73 77 60 47 50 47 53 58 58 74 91 62 32 10 38
91 98 136 173 153 136 109 97 97 128 160 158 170 171 158 146 127 109 111 111 137 149 125 100 87 69 64 105 108 84 95 96 80 77 73 69 73 67 75 85 72 42 14
175 200 216 187 155 147 135 139 156 173 202 227 214 219 201 186 145 92 60 83 123 182 201 190 170 131 103 78 89 105 91 92 122 100 94 87 80 81 72 79 91 86 62
170 171 163 157 137 147 166 163 190 197 243 257 249 223 198 137 107 87 88 90 77 96 140 216 212 219 188 147 111 81 91 107 72 125 122 93 83 82 84 66 83 97 101
118 125 111 116 76 138 176 150 168 183 200 205 192 191 163 124 75 71 79 97 138 168 130 174 220 225 223 226 182 133 105 92 87 80 109 137 98 75 85 84 74 87 98
160 125 113 151 138 129 169 155 163 148 126 160 144 146 104 85 105 86 102 138 154 172 167 154 125 149 199 194 203 204 159 127 118 89 76 83 110 113 87 90 85 91 96
165 168 153 148 158 170 160 166 150 186 156 159 128 113 85 137 197 193 178 140 129 124 128 126 113 94 108 193 143 150 205 177 127 150 155 107 48 91 104 89 85 87 107
156 151 161 172 170 151 206 192 170 143 105 81 95 77 164 185 229 209 168 129 116 72 99 117 98 61 40 19 79 160 99 167 185 138 127 154 110 40 70 75 77 80 106
198 211 246 218 212 163 165 99 114 145 164 99 176 174 177 193 185 168 181 150 117 55 38 20 61 66 76 55 46 51 108 64 146 185 143 123 174 66 39 63 69 73 91
195 192 213 179 141 154 177 152 160 111 96 189 151 162 154 154 156 146 177 122 64 104 50 19 50 49 80 59 112 143 135 99 65 138 136 145 120 150 65 31 68 75 84
176 193 184 183 201 125 183 202 152 136 106 109 110 138 146 145 147 184 136 49 72 43 44 55 42 53 93 96 111 111 169 184 106 116 107 84 174 198 204 125 60 91 90
194 171 156 180 236 236 198 129 157 157 89 97 123 146 108 71 59 26 53 64 52 61 49 31 70 89 71 111 137 156 177 164 95 128 134 51 84 229 298 246 183 115 158
195 163 231 280 314 291 269 224 239 90 104 152 94 84 85 70 88 106 98 66 65 65 65 51 75 99 74 87 129 169 146 128 78 106 159 140 148 153 195 196 208 181 178
160 210 263 278 308 203 92 137 19 87 134 101 101 92 99 107 109 102 94 91 71 78 66 46 71 87 87 99 153 213 132 100 74 83 87 146 210 133 173 190 178 221 195
196 232 348 366 178 257 229 220 88 104 111 108 65 93 104 96 102 100 108 116 122 82 30 30 56 65 89 94 94 231 141 79 74 58 63 114 160 223 178 140 194 228 244
189 266 329 274 283 138 78 67 91 95 96 106 111 111 111 107 102 101 118 126 138 150 148 125 94 86 82 115 71 195 245 184 96 19 25 58 114 196 197 212 158 119 170
177 281 297 234 121 98 84 94 92 70 95 118 117 119 105 102 108 122 134 136 131 133 136 115 115 83 81 97 91 92 310 251 130 129 57 36 78 123 182 184 221 201 120
188 197 196 141 128 109 83 85 80 94 113 106 96 98 100 111 131 150 159 144 131 112 120 111 103 86 96 103 110 88 54 270 275 119 147 59 36 78 175 158 179 227 196
174 147 136 130 154 98 86 89 87 107 89 79 90 121 145 157 169 165 153 137 114 103 108 136 95 95 94 96 114 76 91 7 91 175 98 105 79 19 121 240 201 204 164
133 142 135 120 99 90 85 115 101 72 87 110 135 164 179 177 171 162 134 122 118 117 102 107 97 67 87 89 128 107 80 60 5 32 87 39 73 90 65 188 271 239 173
121 115 115 131 83 109 125 103 88 106 111 133 156 163 169 167 133 131 143 139 124 130 107 95 77 57 93 98 129 105 92 73 51 78 72 71 18 64 178 180 146 128 91
128 134 143 119 129 139 143 119 117 115 121 148 146 157 163 156 132 109 89 67 76 93 82 75 67 65 27 113 100 111 88 78 88 57 84 118 118 56 110 154 159 115 140
129 128 109 111 180 166 157 154 155 124 134 135 144 146 145 149 97 110 83 60 58 50 43 59 65 53 49 33 58 89 75 53 66 65 45 82 92 126 106 132 152 141 152
105 121 139 135 157 132 147 129 102 107 105 95 103 121 138 109 87 71 86 77 68 56 53 59 62 61 46 45 47 45 37 29 44 49 51 42 60 95 128 123 124 118 135
139 154 146 165 151 129 109 93 100 94 79 72 80 120 127 84 49 33 65 69 66 61 42 27 25 17 16 22 47 48 41 28 28 33 41 48 60 66 98 130 116 100 98
138 186 186 152 147 120 107 94 95 87 75 77 95 105 85 54 27 29 53 63 81 55 36 20 32 19 -6 5 18 37 26 46 42 39 74 52 55 71 66 102 122 89 106

GFSMA_con_3kmhel_003.txt.gz
Helicity
47 72 96 98 96 102 110 117 115 100 118 145 154 149 153 147 143 112 90 131 136 128 123 131 131 115 113 110 95 89 88 110 118 113 107 85 90 82 84 76 68 57 10
81 113 113 123 120 118 138 120 123 136 154 158 178 188 204 210 189 151 118 104 154 173 181 174 171 172 174 161 139 138 103 90 88 108 106 120 91 86 89 82 75 73 77
112 104 103 115 140 142 144 116 114 152 166 169 174 168 170 178 171 154 138 127 96 111 148 191 199 201 196 201 197 166 153 130 104 79 94 96 124 104 88 93 85 73 95
60 82 135 145 151 132 108 121 141 140 144 154 159 154 155 164 127 112 134 121 93 74 61 112 137 175 204 208 213 231 207 150 128 100 73 87 87 117 108 106 94 85 90
109 127 153 147 138 151 168 156 162 159 169 165 155 155 172 164 145 140 151 137 140 146 152 165 153 121 164 194 205 215 247 230 208 146 101 73 69 88 114 112 109 99 91
150 153 159 153 154 167 167 159 159 148 144 127 126 132 109 116 147 207 205 181 196 209 214 213 194 181 137 142 140 166 183 222 228 227 204 146 93 57 96 115 107 109 124
167 155 170 188 189 192 182 176 152 157 159 160 123 156 126 132 195 225 232 231 240 215 193 185 162 149 131 124 96 99 116 138 169 211 214 217 167 155 61 98 115 107 108
214 210 200 187 181 171 179 174 160 157 142 136 124 97 113 156 192 209 252 246 230 184 179 160 130 90 71 67 54 52 87 91 102 146 178 182 201 166 94 59 80 95 93
192 188 176 168 161 139 164 180 185 190 184 162 175 157 189 232 209 152 217 177 171 148 114 112 86 61 38 27 31 50 64 79 102 93 128 170 147 177 145 58 56 66 69
196 165 141 122 122 164 211 195 197 225 197 216 138 152 160 183 213 185 179 149 102 102 96 77 100 106 97 52 61 88 67 101 121 98 91 137 167 136 113 74 51 42 42
142 118 118 138 162 212 226 213 200 186 164 196 179 166 155 142 134 151 136 111 73 51 27 28 2 7 60 77 62 69 123 120 140 137 72 115 155 158 102 52 75 72 37
143 152 142 162 202 246 246 246 189 143 146 155 123 103 120 139 107 74 93 65 36 42 46 25 29 26 41 46 50 76 80 88 113 128 94 88 137 137 171 97 77 88 91
127 134 157 226 301 298 245 207 157 147 111 125 98 105 93 82 84 79 83 95 76 53 32 27 15 22 31 48 48 63 79 97 102 59 42 82 125 185 207 200 203 120 130
111 111 169 287 343 261 223 108 73 95 117 103 103 80 66 73 89 83 87 81 65 57 52 36 26 20 34 59 50 48 67 116 126 58 41 56 106 180 128 229 188 189 170
87 111 179 246 260 228 126 106 126 142 120 101 82 95 94 93 101 111 112 115 98 65 21 39 39 52 46 64 77 63 65 123 169 157 53 44 57 93 120 152 215 250 193
89 113 187 213 192 120 101 116 111 95 92 93 107 114 102 107 112 116 118 132 128 125 107 81 54 43 42 55 62 83 59 100 201 191 128 49 51 69 48 98 137 208 200
106 122 151 170 138 107 94 105 92 76 82 86 97 94 83 94 106 114 123 128 139 139 119 73 66 50 45 60 70 81 51 88 218 241 192 138 81 55 61 44 99 148 210
122 155 155 143 95 92 96 99 78 73 77 70 63 77 78 95 101 126 142 136 140 117 108 65 66 77 75 82 91 94 43 72 112 242 206 143 124 72 53 78 88 152 151
109 122 133 111 98 90 108 91 95 105 80 69 69 77 87 105 118 129 129 134 121 112 112 117 81 80 72 67 110 80 66 35 75 65 110 67 80 103 70 32 99 166 215
109 129 119 89 80 113 92 98 126 101 104 80 78 97 111 121 128 125 134 129 124 129 108 99 90 79 62 58 91 87 44 45 40 67 65 32 25 14 49 57 52 175 149
128 113 81 111 128 103 117 143 132 117 93 73 84 96 109 123 94 125 133 102 104 105 98 88 94 81 60 63 83 116 61 65 42 23 56 59 29 36 16 41 55 138 247
118 123 112 129 131 106 126 189 149 115 89 84 90 95 102 95 109 105 70 64 70 72 77 88 82 74 39 38 39 48 93 97 83 33 67 48 67 59 58 76 93 112 130
112 116 128 127 142 163 158 148 128 95 85 92 88 90 97 98 92 88 61 54 51 50 59 64 67 47 24 23 51 32 53 107 87 88 84 57 54 74 81 86 114 61 215
112 121 134 140 154 158 130 116 92 79 85 82 75 76 79 71 92 59 49 48 51 54 58 58 54 37 19 15 28 58 84 68 55 53 20 36 34 76 85 99 93 116 117
109 106 130 159 155 147 136 108 83 85 77 63 64 64 67 75 66 23 36 47 52 48 54 45 36 11 -3 -12 -15 26 61 27 2 16 15 19 43 54 67 94 97 96 129
113 141 169 180 174 150 135 113 89 79 64 59 50 51 67 67 30 17 27 44 54 50 37 32 34 29 23 4 -11 -28 -17 16 41 14 19 28 35 43 54 52 100 97 100

GFSMA_con_3kmhel_006.txt.gz
Helicity
126 61 27 50 58 64 69 76 98 95 99 101 105 96 104 100 100 100 111 196 152 138 143 151 171 162 152 145 168 163 137 122 73 55 63 81 92 90 90 85 91 85 27
160 -1 32 62 72 82 100 122 123 114 114 97 103 94 95 115 132 134 133 182 184 160 141 141 131 149 167 170 165 176 199 179 156 121 74 62 65 77 77 95 96 92 93
97 34 40 62 99 131 121 118 96 82 91 98 78 77 100 126 147 143 122 156 171 183 150 127 111 113 137 166 188 181 178 201 221 175 130 92 61 62 76 84 91 98 96
33 26 86 135 148 142 135 110 101 94 92 80 83 87 106 109 131 98 98 142 171 143 151 181 129 109 120 132 155 182 194 192 207 215 216 159 100 75 66 78 85 95 106
103 122 139 136 126 135 130 120 111 103 87 84 85 85 103 104 99 114 129 131 115 157 175 215 136 95 164 173 168 148 179 208 205 212 204 221 211 144 88 65 68 88 100
120 110 125 125 122 122 118 154 135 143 100 107 111 87 115 115 123 134 188 131 121 173 124 164 186 195 229 183 180 150 154 176 175 189 191 211 230 227 190 93 65 63 83
121 129 131 124 124 145 163 147 144 132 145 203 127 139 85 68 132 101 122 129 108 147 174 176 176 228 186 219 165 199 165 120 159 147 156 168 183 215 198 183 81 70 65
162 157 156 150 166 144 143 150 140 134 135 178 108 100 123 132 109 248 225 154 153 182 155 172 200 157 146 122 128 117 91 129 119 125 145 134 160 173 191 179 132 84 78
171 151 137 134 131 121 132 167 159 140 148 141 189 140 181 219 227 152 166 161 182 147 125 111 82 106 117 126 104 121 128 110 91 93 94 125 124 145 166 182 155 78 88
131 124 122 123 124 126 137 149 161 153 172 200 187 181 163 159 202 218 184 173 163 145 129 132 142 124 118 93 88 47 76 124 139 141 104 81 121 120 158 160 167 94 71
105 106 108 118 122 140 166 172 185 204 192 200 211 185 178 163 144 148 161 125 116 94 91 79 71 49 59 58 61 75 102 54 105 143 129 119 97 124 144 159 176 119 63
97 90 102 113 128 157 187 206 215 203 179 144 87 144 135 146 130 129 109 91 77 66 77 60 59 44 32 29 37 49 60 104 110 158 122 99 128 146 153 162 182 120 68
97 93 96 104 137 188 250 261 238 116 91 142 140 132 120 109 98 94 91 77 67 51 63 67 59 55 48 39 21 93 114 91 106 137 140 102 111 145 178 178 209 256 89
90 83 83 101 165 199 267 203 81 124 145 113 103 96 83 70 69 80 80 78 62 56 56 41 59 61 67 69 62 50 75 99 104 89 153 84 79 98 113 151 120 212 290
84 87 88 109 168 185 119 108 139 133 127 92 75 62 70 67 76 77 82 93 95 65 26 35 45 53 66 72 59 58 63 64 82 41 116 104 82 102 129 134 101 89 157
82 83 90 121 158 120 121 129 112 116 104 70 64 79 68 67 74 78 77 103 120 129 132 84 62 57 58 57 54 46 60 52 83 75 105 150 122 107 123 150 129 109 153
74 73 90 126 102 109 88 81 102 92 74 61 66 72 69 61 71 80 92 109 122 121 128 108 93 72 58 56 55 70 67 67 48 120 160 185 162 113 97 124 115 113 98
73 78 90 97 80 83 71 101 87 65 76 84 75 71 68 73 63 68 90 103 121 121 150 107 70 66 62 50 54 65 80 51 47 94 96 203 226 136 82 96 88 82 94
74 74 81 102 93 92 92 91 80 70 101 100 89 67 59 52 55 76 89 110 138 156 143 113 80 70 62 53 62 68 68 42 54 90 3 30 142 163 89 84 86 69 105
94 100 88 87 105 97 101 106 112 99 121 110 81 69 64 64 77 97 101 111 130 134 109 100 87 70 64 59 68 64 74 33 42 62 68 40 37 78 87 26 54 81 107
96 110 127 133 113 111 124 104 95 76 121 85 68 77 83 123 100 90 113 108 105 85 99 88 81 75 68 61 61 55 54 39 72 64 74 95 70 58 46 39 12 83 143
107 105 100 98 112 135 166 135 126 79 78 70 82 80 80 89 115 74 59 67 54 70 65 74 72 82 43 45 20 22 13 36 56 87 82 55 42 98 73 66 32 -25 186
109 102 89 84 104 139 140 128 94 70 76 85 80 77 76 85 61 82 73 36 44 54 61 58 61 47 32 25 23 27 28 53 59 47 53 95 81 58 51 55 28 2 84
108 111 103 99 108 183 139 119 78 64 74 79 77 69 70 62 86 89 51 31 33 42 51 65 62 35 19 -20 -3 20 58 95 58 75 69 38 50 67 92 80 40 22 38
109 113 115 110 124 180 151 120 71 78 79 67 67 63 69 48 79 46 33 25 23 30 49 61 33 22 9 -1 -5 -13 14 51 56 53 38 26 50 53 38 72 75 22 38
132 139 118 121 177 163 159 121 85 83 77 61 58 58 81 73 37 25 33 28 27 27 31 39 26 20 25 29 33 24 2 -18 57 52 58 38 33 54 14 29 48 50 59

GFSMA_con_3kmhel_009.txt.gz
Helicity
91 99 159 246 127 43 41 39 66 126 88 77 130 97 101 58 86 71 85 160 155 123 110 100 93 93 102 121 144 174 193 182 157 141 101 59 57 53 50 63 72 76 84
88 82 68 79 35 38 54 111 141 109 98 123 81 110 81 62 72 86 75 98 138 130 126 107 100 98 90 90 117 150 179 195 217 211 180 154 105 67 62 52 56 74 75
97 120 60 20 62 133 91 100 142 122 118 79 114 109 88 99 106 91 69 43 93 114 116 147 147 122 112 92 97 123 156 191 206 221 230 234 216 170 85 67 60 57 68
95 113 69 75 90 105 119 140 99 102 104 123 107 100 96 74 76 81 42 42 81 90 120 120 96 104 74 103 119 127 139 183 221 231 227 234 242 239 230 138 80 63 62
70 77 107 117 92 81 98 80 131 92 107 91 71 114 111 51 73 88 94 68 92 110 151 190 116 118 92 154 153 154 119 142 190 212 244 251 239 250 252 231 194 85 66
82 84 109 99 56 77 108 167 125 124 112 106 95 187 60 111 101 39 70 56 83 156 146 166 149 107 130 224 216 138 173 167 119 190 236 244 239 242 260 243 229 194 87
94 85 110 113 113 124 136 117 117 129 113 110 144 118 114 30 92 86 80 158 211 169 161 158 175 197 205 200 127 190 143 112 177 123 162 198 223 212 218 243 237 210 186
132 114 143 120 147 135 117 110 139 146 114 113 155 170 142 130 123 252 241 207 137 108 105 151 192 141 120 119 129 131 126 169 133 121 105 135 170 191 185 200 225 234 192
118 125 128 128 120 103 111 137 131 185 145 164 134 188 178 217 202 142 158 170 182 169 159 129 146 150 173 98 64 141 154 113 126 133 139 121 101 118 142 153 166 206 209
126 109 104 98 106 108 112 118 140 280 161 184 170 183 224 215 235 242 176 101 81 94 98 87 90 85 89 69 80 79 75 52 63 122 144 173 150 102 96 125 128 151 203
128 112 114 125 134 123 127 153 197 195 201 199 241 218 221 199 181 203 223 137 81 58 67 60 69 68 29 34 38 42 80 25 64 70 82 141 170 121 87 76 106 124 156
100 113 123 114 107 110 117 156 267 243 308 231 184 218 193 193 165 160 134 101 76 42 53 63 52 50 52 58 50 58 66 86 52 70 48 102 142 114 114 98 94 151 153
110 127 110 105 106 119 209 295 298 234 153 184 174 165 132 112 90 72 68 65 62 30 48 50 48 54 59 72 69 93 84 33 33 70 78 98 144 106 146 151 147 191 214
125 112 99 89 97 170 216 192 103 80 71 87 205 114 97 68 62 67 71 80 57 45 58 53 65 67 57 58 75 62 50 47 45 68 43 83 165 150 141 162 170 152 234
101 103 75 81 195 118 109 69 123 82 101 147 109 73 80 75 74 60 66 55 80 76 72 60 70 52 61 74 70 89 69 42 46 38 45 54 101 134 139 140 153 163 106
80 83 80 78 126 132 106 81 80 107 83 115 113 78 70 83 78 67 55 59 77 84 103 96 87 69 98 99 83 63 46 39 43 63 141 88 85 114 128 115 124 144 110
74 83 97 99 99 111 63 77 87 53 81 115 97 74 83 91 91 79 72 66 65 70 116 116 106 108 123 97 69 60 52 49 61 104 130 98 72 120 140 95 74 97 107
80 88 101 107 84 87 79 101 70 64 62 71 64 100 124 87 65 58 66 63 84 86 132 128 101 102 83 76 54 44 48 44 54 28 48 20 76 70 104 105 64 53 87
84 83 93 100 107 120 94 62 58 69 68 98 120 142 132 74 76 81 95 102 105 105 151 144 117 95 86 65 51 47 47 54 38 9 59 -43 33 73 77 119 71 46 61
86 94 102 132 97 106 79 69 76 88 95 77 93 119 96 79 100 136 103 96 113 133 119 119 101 84 72 55 57 63 69 47 40 6 3 67 84 60 87 82 28 59 92
93 87 131 105 106 109 161 150 90 80 97 90 79 85 84 145 119 107 82 87 99 103 101 87 84 79 68 63 71 54 42 22 23 20 24 88 33 14 54 31 48 37 46
118 102 127 124 121 96 278 182 117 87 74 83 92 92 81 86 127 88 42 54 55 58 58 66 78 73 53 58 53 28 26 24 38 30 -20 66 82 72 77 31 6 -41 5
131 111 131 107 136 158 232 176 119 84 77 85 86 80 78 84 89 106 105 61 43 40 100 101 60 56 58 49 36 13 8 7 -7 12 22 71 99 80 75 37 -16 -70 -36
128 145 121 123 122 274 263 172 110 70 89 90 86 78 73 87 148 97 68 47 38 29 33 86 80 64 57 22 10 8 3 1 4 44 56 40 79 124 67 97 20 -54 -1
119 136 111 147 130 228 249 172 101 86 92 88 80 71 98 70 142 81 48 44 30 25 33 56 52 49 27 27 31 25 22 18 5 28 64 41 53 36 29 26 32 -43 -16
114 131 155 167 177 193 240 163 104 92 91 84 66 79 125 117 97 53 48 49 41 27 27 19 45 25 14 17 57 59 30 18 10 -11 12 19 28 28 13 -3 -8 31 18

GFSMA_con_3kmhel_012.txt.gz
Helicity
53 76 92 58 98 156 163 104 100 111 108 105 108 109 103 70 41 55 89 117 93 81 95 96 100 86 62 73 105 127 136 143 140 142 160 186 161 121 83 68 66 56 62
81 112 91 107 119 103 76 71 93 96 107 126 100 115 130 106 123 120 115 90 68 112 119 127 122 100 78 62 67 84 121 158 159 154 156 162 202 200 158 139 82 74 58
81 85 95 71 71 70 61 48 67 95 101 91 110 118 103 148 184 85 97 76 109 133 146 144 162 147 112 57 35 61 104 112 160 180 173 167 172 213 222 193 190 114 76
57 69 74 73 69 92 99 88 66 146 115 109 92 66 103 152 81 79 79 97 74 67 89 96 96 115 116 100 99 101 107 102 86 157 176 191 190 177 208 217 210 197 169
56 59 66 79 70 91 119 145 164 128 88 86 99 122 143 148 135 84 66 88 62 87 126 92 191 256 184 263 233 183 139 137 123 85 130 186 194 192 181 216 211 209 205
76 77 114 97 45 77 157 171 140 122 115 148 127 123 146 159 76 100 171 238 246 211 191 174 181 209 321 338 356 277 260 113 144 195 192 166 244 216 181 173 224 207 203
99 71 128 153 170 191 183 160 147 170 174 164 156 154 173 174 160 139 213 236 256 257 202 137 146 158 183 264 254 241 128 100 228 171 149 131 112 235 229 192 173 221 203
142 181 174 150 157 156 137 145 159 157 191 217 188 166 173 189 166 259 169 134 134 120 134 210 191 156 134 95 100 76 135 173 139 115 107 137 152 139 220 226 190 192 213
132 137 155 159 151 127 140 141 143 156 237 245 189 223 226 281 282 200 184 166 187 177 163 126 135 132 105 91 47 48 65 73 92 86 77 86 122 152 170 208 206 173 192
197 184 184 175 144 157 168 163 174 202 238 271 265 284 291 331 347 304 157 211 189 216 159 98 93 108 109 99 24 18 -4 49 58 40 47 76 87 107 145 163 172 172 153
196 176 168 140 128 139 147 157 174 302 336 347 343 343 323 271 261 262 251 199 152 99 68 60 73 87 75 68 55 43 80 98 86 61 39 49 58 103 131 141 128 154 161
168 165 154 124 130 144 166 220 307 351 353 325 265 296 328 311 233 221 209 152 107 84 69 37 48 62 68 52 67 67 93 71 48 34 32 37 47 83 133 138 113 126 163
159 155 130 142 148 157 213 218 255 282 229 214 210 269 254 191 207 158 155 109 123 89 76 52 53 57 46 53 61 93 84 66 63 60 50 51 53 59 118 138 115 98 111
147 126 143 135 124 201 186 231 229 210 170 136 175 170 185 158 148 136 122 125 106 84 72 45 61 51 81 82 102 131 104 105 94 57 40 34 27 11 76 96 75 95 105
118 148 143 120 112 200 215 193 176 174 166 143 233 172 132 142 137 137 137 128 140 96 69 61 48 43 78 85 118 119 103 100 57 24 16 40 33 62 55 78 75 87 111
128 124 123 116 116 167 201 181 174 163 178 155 117 130 239 217 126 105 167 132 131 129 119 75 58 72 121 125 121 102 74 44 32 30 50 62 58 67 69 75 73 70 92
107 110 112 125 129 133 133 157 161 121 181 118 86 123 125 80 100 135 145 123 123 111 113 100 88 111 111 48 59 81 61 54 62 37 36 34 67 80 72 82 80 66 79
111 106 110 110 89 106 206 154 151 137 157 190 119 97 139 179 161 142 168 158 165 148 126 116 114 88 64 81 88 73 65 56 54 41 40 42 17 45 49 69 80 65 54
117 111 107 73 101 171 159 99 108 187 164 143 101 100 81 111 142 162 145 117 93 104 137 148 120 115 111 88 67 76 59 62 44 46 59 26 -8 51 31 29 84 63 70
130 100 76 60 155 138 131 142 188 213 160 164 142 132 116 149 170 145 109 101 105 111 110 115 113 101 85 71 84 66 59 53 41 43 33 19 14 7 70 28 57 63 28
104 58 39 73 168 168 136 229 216 173 163 151 137 138 145 156 133 161 103 99 113 97 95 88 94 87 80 89 84 74 72 58 53 63 19 32 -64 3 45 41 91 81 65
66 110 83 88 152 224 241 246 204 172 128 122 133 125 139 115 172 113 107 136 90 113 104 123 126 111 92 68 66 68 27 23 38 14 -17 36 65 99 74 50 36 32 20
115 139 124 150 178 315 291 261 212 159 126 118 123 136 129 120 177 159 141 103 73 45 47 87 79 95 97 110 95 46 12 25 30 16 23 -19 37 138 214 63 32 -15 -41
146 166 169 167 225 305 287 269 206 150 134 129 143 121 122 143 169 142 105 78 68 63 65 86 86 87 103 90 79 66 56 42 31 10 18 -49 24 61 145 76 -8 -36 -77
146 167 175 213 340 338 264 237 176 169 144 130 122 106 111 127 189 140 88 69 60 63 54 30 13 41 51 25 47 82 97 81 58 29 35 20 11 40 45 46 27 -45 -59
155 160 213 317 357 338 237 210 175 171 144 128 110 95 142 188 153 95 82 77 70 64 71 56 64 73 49 40 13 35 78 95 75 46 47 -4 21 31 49 46 13 17 13

GFSMA_con_3kmhel_015.txt.gz
Helicity
91 105 142 152 160 132 131 119 92 75 80 102 126 142 122 103 142 134 117 73 73 80 112 127 125 84 46 32 45 74 119 122 134 150 154 175 194 162 143 149 138 129 92
136 135 135 114 107 58 59 53 62 88 105 111 123 112 106 156 138 99 103 86 93 133 130 159 149 140 110 65 26 12 19 81 136 139 142 147 168 216 188 164 165 144 130
84 103 98 101 89 94 94 85 128 150 153 142 112 109 108 116 120 102 111 127 78 83 119 121 152 150 150 168 156 114 58 26 54 112 165 127 121 164 214 202 163 171 145
91 91 91 87 99 124 140 162 125 105 110 116 112 116 123 113 117 95 121 164 199 161 146 182 167 167 254 278 252 178 147 126 64 46 44 108 152 162 183 216 213 175 167
116 92 74 63 69 114 134 133 136 129 112 112 106 108 97 133 120 122 161 206 264 295 216 138 264 270 276 274 261 248 265 192 142 112 89 111 112 158 174 181 218 215 187
91 125 130 133 133 133 158 162 154 135 125 125 140 142 146 159 172 193 232 226 219 236 195 200 204 193 235 214 192 177 169 164 179 160 177 153 121 80 174 203 213 251 237
110 134 139 154 158 142 127 125 126 125 117 153 165 150 145 193 255 225 245 250 206 174 159 155 90 72 73 135 166 173 144 126 75 84 128 136 147 171 147 198 226 231 270
132 134 133 170 163 133 124 126 132 128 153 187 172 180 183 180 267 228 203 175 229 188 164 108 70 66 94 74 87 99 42 10 38 52 49 65 70 110 159 157 221 249 231
171 158 193 191 167 143 139 140 146 171 169 187 262 256 255 278 199 231 147 254 237 184 143 144 152 160 135 84 80 56 39 71 57 45 39 39 36 76 94 128 148 233 226
204 202 183 195 158 122 138 152 175 196 216 253 268 298 273 255 272 321 319 230 194 185 127 85 84 106 87 79 136 137 91 58 30 25 36 31 35 47 81 102 105 177 242
189 231 196 193 141 131 136 183 220 228 227 221 234 250 267 296 328 354 356 252 179 144 100 95 38 73 67 59 44 29 30 32 29 60 49 41 37 36 56 94 94 137 215
223 240 207 165 130 149 160 174 182 204 212 223 223 247 292 348 310 344 311 216 185 116 73 67 85 50 55 49 25 32 39 73 97 83 50 31 28 17 55 88 109 141 174
240 225 188 165 138 138 161 161 149 148 178 206 215 211 235 276 246 254 215 194 162 106 69 73 56 54 49 37 35 110 108 71 75 60 44 34 11 13 39 62 93 137 163
195 217 203 178 151 132 183 155 130 142 154 159 147 149 222 221 215 233 173 208 132 109 100 55 48 40 40 81 100 116 37 57 32 10 19 1 2 19 34 53 88 132 152
157 170 156 152 134 166 165 161 133 125 140 151 182 199 250 229 242 195 206 176 164 141 125 87 60 54 82 47 44 37 3 -20 -24 7 5 20 44 70 62 42 85 115 132
201 141 146 132 121 139 152 156 154 145 159 160 202 240 203 161 141 151 199 178 166 172 168 109 80 65 54 45 35 14 -16 1 37 38 60 72 87 82 67 43 71 93 108
186 158 139 110 109 102 118 138 146 146 220 228 233 200 152 146 143 114 144 196 175 155 143 100 79 52 35 30 16 31 52 60 63 67 72 77 80 47 63 59 73 90 95
159 138 105 91 85 105 123 111 110 143 192 179 157 135 133 159 125 150 160 158 138 103 104 61 67 42 54 65 63 56 53 56 71 62 74 81 86 64 67 61 61 65 106
164 117 99 75 72 97 93 95 140 219 220 186 170 142 121 135 149 127 121 122 90 82 90 100 88 96 105 105 89 86 76 74 53 57 55 72 87 33 45 77 65 92 82
146 107 64 47 21 85 113 166 204 214 219 207 176 177 171 157 128 121 122 98 96 95 92 99 100 100 104 102 98 75 61 38 32 46 83 69 84 56 38 89 116 78 43
121 88 72 30 53 148 183 187 192 200 198 167 161 164 150 116 117 125 142 111 97 97 103 100 92 94 95 99 78 65 58 27 10 7 35 17 63 82 34 107 84 74 82
79 92 101 114 116 174 230 236 225 206 196 171 144 149 139 146 177 186 174 149 119 95 87 97 88 93 70 79 81 83 63 40 26 13 34 -5 73 73 43 155 93 50 64
85 109 151 168 190 273 285 304 273 223 201 157 154 155 133 182 190 161 143 115 80 65 70 86 99 91 67 81 107 85 72 65 37 83 75 26 56 54 -6 93 134 12 32
93 114 133 164 266 300 277 295 300 246 205 170 162 148 139 160 150 145 127 87 66 68 69 87 91 74 88 94 118 89 88 103 129 111 90 29 24 -2 14 48 132 63 39
82 132 148 179 318 311 289 302 256 220 199 150 134 134 124 148 145 155 117 76 64 69 49 42 41 36 38 50 36 53 68 53 102 76 115 65 17 10 63 72 43 26 8
97 126 166 208 257 273 247 261 232 209 163 138 129 140 131 152 155 127 97 87 76 68 69 66 68 64 73 65 27 45 20 9 41 116 95 35 31 41 90 58 120 58 -10

GFSMA_con_3kmhel_021.txt.gz
Helicity
97 132 178 183 170 143 130 125 138 153 169 174 167 160 158 142 137 114 116 151 123 101 112 140 146 114 111 126 141 112 87 88 105 96 90 97 97 101 98 63 83 105 133
159 176 155 143 134 112 109 128 139 154 168 150 149 157 152 139 126 119 121 121 161 170 174 200 204 180 160 125 96 71 77 84 55 58 42 67 72 79 97 119 94 69 91
147 147 135 122 103 107 124 128 138 143 139 112 129 137 136 135 142 153 144 142 147 241 311 269 240 267 242 208 153 117 135 95 83 70 20 24 48 71 36 59 76 85 51
140 154 136 117 105 117 119 113 109 129 129 119 99 107 101 124 141 131 123 113 140 161 222 245 223 198 187 184 182 171 180 184 155 112 105 89 24 -30 -13 -4 -33 -0 73
133 143 118 89 86 110 102 85 99 95 85 78 63 83 98 121 124 117 115 136 157 178 189 225 234 233 195 169 161 167 166 157 134 172 192 114 90 35 -4 -47 -58 -79 -21
146 135 107 110 85 99 81 58 87 113 94 78 86 117 115 125 153 161 128 123 134 161 196 219 208 197 249 269 271 232 202 180 196 216 134 118 35 30 69 52 15 -25 5
136 140 124 94 115 119 92 104 91 108 123 96 105 126 148 181 181 146 119 131 147 144 163 159 136 157 174 197 188 163 154 165 179 178 197 135 74 62 70 125 148 161 106
148 167 140 124 139 133 156 138 125 112 120 125 112 142 167 158 173 174 137 143 141 121 124 92 116 147 152 137 164 197 178 160 147 146 103 81 73 61 87 128 147 138 128
201 198 177 172 168 150 140 151 176 174 197 172 174 176 206 181 196 179 175 157 129 122 143 137 131 130 117 117 123 113 88 98 131 101 83 69 62 56 72 85 93 99 104
209 203 202 198 191 160 163 157 212 204 224 198 209 206 212 209 253 233 146 137 155 139 120 93 80 80 78 73 87 104 111 121 109 85 78 85 79 69 54 47 65 86 93
284 257 221 224 209 185 211 173 277 266 197 209 224 207 203 202 220 252 241 157 165 113 105 89 65 72 61 58 53 61 129 155 177 165 142 108 72 54 50 45 40 46 49
319 300 276 243 230 217 183 222 265 220 170 181 171 177 199 213 214 218 204 156 163 135 138 80 69 80 79 75 105 126 134 139 129 118 105 87 54 30 31 32 29 32 35
337 354 302 281 231 154 234 218 302 243 139 162 137 143 137 162 186 195 185 172 153 149 157 93 69 113 104 117 111 127 123 99 81 67 55 47 38 22 22 27 35 36 47
382 332 342 270 128 196 263 174 203 197 171 140 118 116 127 135 142 159 176 180 190 193 170 115 104 108 113 91 100 103 90 92 84 67 79 59 46 41 35 37 45 53 57
411 361 294 179 246 207 228 235 195 167 165 150 144 112 134 125 154 152 166 172 191 146 172 96 122 126 113 96 86 83 74 76 61 66 50 58 66 53 68 70 66 62 72
482 391 252 281 255 220 288 215 152 161 176 145 116 133 145 136 127 151 163 165 167 173 190 133 129 118 89 84 60 66 63 56 53 59 73 70 90 110 85 84 81 80 74
381 332 281 239 240 225 204 138 184 181 191 121 134 126 101 135 141 152 170 178 173 179 171 149 125 105 105 77 66 71 57 57 58 51 54 68 75 85 75 84 77 68 63
351 301 290 298 237 239 135 152 185 186 156 121 113 130 119 148 151 163 169 155 153 163 175 148 136 123 113 85 72 69 63 62 64 44 39 41 41 48 64 88 90 70 56
352 364 387 362 454 148 124 148 127 121 128 126 134 145 133 149 160 171 155 147 164 166 166 169 150 143 122 90 71 57 55 62 60 30 38 56 70 88 97 76 74 65 49
415 456 399 474 158 105 136 108 121 150 159 155 171 183 169 163 155 158 143 147 171 167 163 156 147 140 115 72 50 38 37 50 46 78 91 70 69 64 52 60 52 51 49
454 514 633 308 83 137 136 131 181 212 204 198 221 221 198 167 144 157 178 164 180 174 153 149 143 138 96 63 49 51 46 42 55 87 102 106 101 89 90 73 51 41 34
696 654 513 99 87 140 87 111 217 268 263 263 247 227 203 168 166 168 159 172 176 164 151 152 146 121 85 71 73 59 61 42 46 72 72 77 103 87 90 89 47 42 27
778 487 158 116 142 89 68 98 187 306 314 295 261 234 212 202 181 184 178 167 149 124 116 148 139 115 103 84 73 52 48 65 67 82 70 55 103 88 77 66 68 45 16
399 372 135 151 99 70 69 100 211 294 308 287 262 223 220 190 167 174 183 162 139 128 123 127 123 98 100 87 89 70 51 40 49 64 92 76 112 66 80 95 51 92 57
300 174 188 132 96 80 84 120 248 289 293 262 232 232 218 181 129 128 185 154 124 109 100 87 82 69 70 62 63 69 49 35 19 47 101 81 93 81 99 82 47 79 119
225 204 174 113 90 85 92 125 211 278 273 236 229 216 174 179 127 125 183 151 122 104 96 91 91 101 113 103 59 75 75 53 36 17 64 39 42 66 72 65 43 54 68

GFSMA_con_3kmhel_024.txt.gz
Helicity
104 113 142 156 125 106 108 124 137 150 160 173 179 170 157 147 132 114 108 171 181 148 137 147 133 97 62 67 77 53 33 38 16 22 20 14 33 86 86 106 107 115 106
115 123 126 121 118 103 102 119 130 133 147 161 182 184 172 160 137 125 96 128 220 239 225 228 212 177 132 93 61 33 35 40 30 16 -10 4 14 15 31 63 90 87 97
124 135 129 112 93 92 117 130 133 128 133 154 171 172 167 152 144 143 137 127 158 246 231 210 229 230 207 177 138 123 129 110 87 68 27 18 8 -43 -62 -30 -2 48 76
126 135 121 97 86 124 126 132 110 111 104 132 140 148 144 159 151 145 153 150 151 152 175 207 212 199 176 166 163 143 132 83 59 32 63 90 61 31 21 -4 -56 -79 -8
131 133 118 122 126 118 106 101 102 89 101 99 121 129 155 166 142 150 176 184 167 157 151 197 220 230 220 207 179 157 146 150 135 121 135 71 51 96 111 -1 -31 -4 -17
139 146 146 143 119 121 139 118 94 101 85 93 140 172 177 176 162 173 173 152 149 147 131 152 170 178 216 210 199 176 159 165 162 171 148 150 176 152 45 -20 13 21 95
155 168 158 153 156 154 119 85 63 76 102 87 134 164 156 196 208 179 150 131 113 92 113 89 84 102 132 181 198 180 157 166 171 176 172 189 162 109 60 53 45 64 106
181 182 182 185 173 135 116 90 79 108 120 141 131 152 158 150 201 172 152 140 119 130 127 102 104 116 94 96 121 143 148 134 108 102 86 79 84 81 70 79 102 110 96
195 223 204 176 154 140 133 106 98 85 135 141 212 160 182 174 211 172 154 163 159 135 116 127 150 139 134 118 119 106 90 72 64 59 55 69 83 90 98 96 98 96 102
231 232 227 204 183 158 139 121 95 87 192 201 211 227 202 248 255 237 186 172 182 167 154 142 142 138 142 110 101 84 76 97 106 89 88 94 110 108 96 87 83 83 88
251 264 242 234 221 192 206 214 211 132 175 253 217 280 213 210 257 297 285 251 218 140 132 126 136 127 115 105 94 93 113 112 116 114 116 112 100 85 64 62 64 62 61
315 284 257 251 245 254 248 255 99 267 205 258 275 233 229 286 281 295 313 250 223 177 159 120 113 126 113 114 123 123 116 119 109 98 94 95 96 84 67 52 35 31 37
361 332 362 316 152 208 207 177 270 211 207 231 197 207 205 217 262 253 260 218 214 191 173 133 130 124 137 120 105 106 97 106 98 92 89 84 90 88 62 50 42 39 42
447 462 446 383 312 236 251 253 223 194 236 203 170 182 192 164 166 197 217 210 193 183 184 145 145 153 152 92 83 86 93 93 85 80 79 77 71 71 51 62 46 51 61
485 415 447 387 361 308 234 155 237 242 190 172 169 168 171 169 162 160 163 189 199 187 177 138 141 123 136 102 88 88 95 74 67 77 72 71 72 52 53 70 69 72 68
513 466 311 352 344 221 201 258 233 144 173 179 175 153 142 138 139 140 146 166 194 204 204 166 137 148 125 113 96 100 97 71 71 62 65 57 48 50 57 52 50 46 59
437 396 371 379 262 247 279 328 176 134 170 175 156 125 129 129 137 157 163 174 189 220 220 177 170 150 138 118 110 117 108 102 100 51 43 36 31 32 26 25 24 34 37
419 391 357 294 331 309 344 236 107 146 200 199 156 152 129 147 150 169 188 167 198 212 222 193 188 156 130 124 122 111 95 85 96 60 43 39 33 27 23 29 43 46 37
440 433 388 403 333 415 264 75 105 190 182 165 179 175 146 181 163 193 211 196 210 204 217 223 182 158 139 130 111 98 90 79 71 37 48 53 43 23 16 22 27 30 31
442 371 367 420 487 486 108 85 167 167 154 172 178 179 187 204 184 196 214 204 210 215 211 198 171 155 150 123 115 98 79 71 73 69 65 47 45 26 18 12 16 21 23
466 431 570 619 626 208 89 149 166 149 164 189 212 207 212 200 164 206 242 205 227 224 206 187 160 161 142 126 104 96 81 77 51 64 63 82 90 63 64 46 37 34 43
522 566 700 815 345 161 105 127 116 152 191 249 265 255 224 203 183 182 177 193 216 233 201 196 169 156 138 132 130 99 78 51 57 62 39 92 71 60 66 64 22 10 20
698 724 942 343 206 155 132 120 71 154 209 243 290 284 260 234 205 212 197 206 196 171 166 187 167 158 157 143 127 103 74 66 76 85 48 36 65 46 69 76 24 7 52
859 864 471 221 201 179 156 87 78 136 203 238 284 273 272 236 216 225 222 217 199 178 155 156 174 138 140 126 139 139 105 88 85 74 73 46 53 43 63 86 20 -9 34
441 357 231 225 182 139 94 77 101 166 198 214 242 260 255 230 180 176 219 195 182 158 134 99 104 90 78 78 108 163 120 82 69 58 86 71 41 23 30 49 21 23 29
201 209 203 162 135 132 90 80 111 199 191 207 221 227 191 214 168 167 216 203 190 150 146 123 115 87 82 103 97 146 142 116 76 46 81 63 33 40 39 77 48 34 24

GFSMA_con_3kmhel_027.txt.gz
Helicity
72 91 96 97 95 79 80 80 95 104 113 124 121 114 109 102 95 95 102 156 157 135 155 149 142 126 104 75 86 63 57 41 17 -12 -11 13 25 30 82 80 83 93 92
87 91 90 83 82 74 71 86 98 113 124 120 129 127 118 107 94 90 99 136 215 230 214 206 197 196 165 146 102 67 33 21 19 23 20 8 -5 -39 -72 -63 4 64 76
74 86 82 79 74 79 107 102 114 124 120 120 129 123 119 114 105 115 110 117 149 252 271 271 262 240 211 173 135 108 81 74 49 40 29 95 95 84 28 5 -39 -36 4
78 80 72 81 88 97 88 90 102 104 105 105 106 111 119 122 123 133 125 118 130 136 181 209 213 214 216 203 191 162 149 138 133 101 70 94 49 20 43 17 -24 -69 -67
77 75 84 100 112 118 122 106 88 81 86 87 90 97 101 107 145 138 137 145 158 152 151 204 230 244 236 232 217 197 181 162 137 118 111 101 71 105 80 61 -6 -55 -68
101 100 121 141 145 147 132 111 114 102 77 71 83 97 122 175 168 130 129 160 157 152 148 161 159 175 213 215 205 189 185 186 192 187 194 181 168 152 128 68 25 -2 8
117 137 160 173 163 146 144 139 128 103 77 48 39 72 136 179 160 146 126 161 172 144 115 120 120 136 156 189 201 182 169 171 155 139 134 140 142 124 99 85 68 57 51
151 162 177 180 168 178 169 144 122 114 94 35 7 65 107 151 164 170 144 160 176 129 120 115 125 137 137 140 173 180 174 155 123 91 71 58 48 48 64 68 85 83 73
199 193 183 184 191 183 167 140 109 92 91 145 99 144 148 181 194 185 133 172 165 131 135 122 132 168 158 148 138 139 135 104 88 72 67 64 69 70 77 77 72 65 82
235 243 225 221 206 180 168 151 109 66 88 110 140 184 206 211 195 195 197 188 149 150 172 173 163 182 168 145 138 133 145 117 91 81 72 72 82 91 91 85 80 74 58
232 250 257 250 237 237 254 268 195 80 78 132 146 165 179 200 212 211 204 214 165 163 163 148 145 150 148 135 125 138 127 110 88 69 72 69 70 75 76 76 69 62 60
285 271 275 278 284 311 303 200 191 115 88 158 180 181 179 187 200 212 223 218 218 185 159 136 125 126 153 150 129 123 98 87 84 78 74 66 61 57 57 55 59 56 47
314 328 329 316 307 290 199 173 182 125 160 166 176 182 177 174 193 212 216 203 190 182 161 119 117 129 142 132 130 104 81 87 78 76 71 68 68 73 70 57 48 44 48
340 350 333 325 370 260 148 174 177 136 181 193 177 170 174 178 175 163 163 175 176 153 154 113 129 118 125 126 126 88 89 77 72 65 62 68 68 72 78 69 60 55 49
380 378 364 378 367 177 220 173 116 196 176 182 177 164 155 142 122 133 149 142 133 124 121 139 141 155 126 125 121 101 93 82 63 63 65 63 60 60 57 49 52 62 64
377 378 364 379 171 246 181 227 257 218 220 144 162 160 139 109 117 131 134 140 138 124 130 116 127 134 128 120 118 102 94 82 73 65 60 53 40 33 28 23 25 27 34
442 365 435 231 268 287 284 282 262 208 132 114 150 139 114 110 121 132 143 138 140 147 137 113 173 139 117 111 109 109 101 95 94 67 57 45 36 34 20 14 9 16 20
386 357 344 370 397 373 359 366 330 142 74 113 128 151 125 130 103 128 139 134 145 159 165 128 117 146 123 109 106 103 101 99 93 69 48 49 32 27 20 4 -4 2 13
399 313 326 434 284 339 342 383 241 64 69 105 131 157 124 143 133 146 148 142 161 192 194 180 135 158 125 109 107 99 94 83 85 54 38 57 50 26 -1 -5 -7 -3 8
387 329 390 308 335 519 381 393 98 10 62 138 132 128 126 153 147 148 161 146 166 196 189 180 156 136 122 116 115 108 89 82 81 67 62 80 48 21 -3 -2 -12 -16 -4
379 404 481 568 684 532 560 135 50 88 121 143 128 135 154 179 173 171 199 150 181 197 185 169 150 133 112 115 104 103 98 87 67 63 76 55 59 38 40 26 7 -2 5
412 451 703 713 687 439 297 116 105 126 149 142 132 123 169 217 221 216 195 177 179 180 167 166 149 129 99 105 99 95 92 89 78 63 69 37 57 35 41 23 2 -1 -3
528 677 720 579 665 293 144 148 128 187 133 122 122 139 171 220 237 229 200 182 198 190 158 153 142 111 105 89 87 71 77 83 73 64 76 46 44 35 35 8 -12 -10 -15
680 578 613 386 262 209 145 134 129 88 105 103 126 131 152 179 238 237 212 188 173 171 161 179 136 103 96 92 77 71 70 79 81 65 84 79 46 30 9 6 -4 -0 5
367 289 227 198 196 160 115 101 103 116 118 116 124 128 152 178 225 237 237 198 170 146 149 145 124 99 95 80 52 56 70 81 75 46 70 85 49 18 1 7 20 35 5
128 134 136 148 120 97 93 90 108 142 126 137 133 147 168 176 226 250 240 207 190 129 143 145 142 115 96 80 57 68 75 93 88 71 116 68 36 35 8 17 13 -12 1

GFSMA_con_3kmhel_033.txt.gz
Helicity
11 -15 27 36 31 53 24 21 26 25 29 28 24 21 29 34 33 38 131 135 137 136 132 147 145 133 124 111 92 87 71 51 49 35 26 20 -20 -22 0 -17 -6 -9 34
2 16 34 41 56 30 28 22 35 28 29 39 29 22 18 27 43 20 118 133 170 208 213 227 214 183 169 142 124 123 105 92 93 86 77 56 35 35 7 10 -31 -39 -6
-6 31 43 60 46 50 50 70 44 50 40 35 47 32 35 23 50 53 47 127 121 189 215 240 226 215 215 197 186 164 149 159 140 120 107 94 93 57 25 13 -26 -28 -13
4 41 46 43 55 54 45 51 51 50 51 50 62 66 64 51 53 50 69 48 106 184 189 201 208 189 204 212 192 170 160 164 162 155 155 176 185 191 207 133 80 75 23
38 40 38 53 57 48 59 58 65 67 87 75 86 99 94 65 52 70 123 91 129 136 203 205 167 159 171 161 166 171 189 192 175 187 187 175 162 175 192 206 194 138 85
39 35 54 65 43 61 73 68 91 91 97 109 111 127 106 75 12 55 103 74 137 127 92 138 129 133 142 146 129 152 173 160 150 151 139 143 144 143 136 123 112 101 88
43 46 60 66 58 78 85 124 120 116 118 122 101 30 73 148 108 69 114 106 144 128 148 122 104 133 163 127 131 133 121 85 96 110 134 150 158 159 156 153 150 143 122
67 65 73 81 76 109 167 144 127 121 126 127 79 95 99 150 175 136 123 132 128 136 114 131 132 133 125 103 189 117 191 135 110 114 122 129 130 121 113 107 103 98 99
75 84 83 98 111 132 163 154 141 136 150 129 112 125 109 125 209 214 235 172 152 143 102 137 131 115 125 101 96 145 201 186 159 130 117 111 106 98 91 85 76 71 72
90 93 112 110 150 145 170 167 161 163 185 182 162 105 57 116 133 159 212 225 175 137 94 116 147 155 133 119 127 255 294 261 173 125 98 96 90 92 90 87 85 81 76
107 144 153 151 180 175 186 196 204 194 193 195 204 135 140 95 89 117 150 153 194 118 130 200 177 185 141 134 155 279 255 196 167 127 95 89 92 92 88 84 78 72 70
179 185 193 235 247 191 245 160 222 198 211 158 151 115 139 146 128 144 144 137 159 180 204 236 234 152 150 160 161 240 230 163 115 87 77 84 91 85 80 74 72 76 75
266 221 200 246 303 321 439 484 273 252 234 156 88 143 109 123 149 168 162 176 179 166 196 186 179 126 101 123 138 214 192 123 87 88 78 74 69 70 70 75 75 77 71
220 166 286 393 426 473 442 370 345 221 175 64 128 193 154 209 175 158 145 171 168 206 218 181 128 130 146 138 247 186 131 113 133 150 127 81 67 69 75 76 65 62 56
385 308 298 378 468 444 454 418 307 187 147 131 206 247 154 139 128 134 138 146 201 257 262 206 202 91 132 150 215 204 161 105 137 120 97 77 65 74 64 57 52 51 51
262 301 352 358 411 466 521 356 272 197 106 269 295 213 145 85 106 125 152 186 190 215 243 166 127 90 133 149 174 190 123 100 98 107 121 112 106 99 72 59 49 42 44
236 269 308 331 471 558 484 310 269 148 262 312 406 230 50 83 105 129 164 167 164 176 209 158 101 85 120 138 131 151 179 132 114 100 145 149 146 116 72 62 55 46 34
169 231 298 365 447 468 317 221 292 226 264 391 270 70 55 56 98 137 153 135 188 159 173 161 132 136 138 116 125 178 153 112 107 86 98 165 136 120 84 86 58 43 25
269 364 428 351 371 308 184 285 206 297 417 399 87 44 25 81 132 151 147 161 193 149 155 186 174 145 155 144 128 156 145 151 99 76 109 113 126 127 120 113 80 49 27
290 294 286 294 252 269 292 255 429 618 398 159 57 57 73 88 120 153 152 176 178 162 164 199 181 175 152 134 161 157 150 152 149 104 92 76 107 101 110 128 124 74 44
167 177 194 193 254 249 272 390 481 304 170 99 65 79 86 101 127 114 110 121 141 151 208 234 239 176 199 157 172 161 179 160 129 116 95 84 104 100 87 98 67 100 68
217 186 164 168 243 343 411 312 264 196 168 147 149 112 109 128 126 107 123 143 141 138 130 202 260 234 189 210 190 177 182 170 152 102 124 86 85 85 93 106 101 122 62
212 225 220 256 293 291 242 251 253 210 177 159 147 120 112 112 103 110 120 177 213 189 185 195 236 231 187 214 219 193 168 156 148 122 108 91 81 86 94 91 97 82 42
175 154 147 134 139 164 188 147 137 163 151 130 82 91 115 123 126 131 150 152 152 224 208 220 251 235 215 184 216 175 165 155 145 108 72 96 86 90 96 90 37 38 70
159 157 148 141 133 102 142 128 135 116 117 116 109 109 125 140 137 138 163 184 180 190 232 255 227 250 316 267 249 222 220 171 162 110 83 95 82 91 93 93 66 123 57
185 154 147 122 99 86 84 110 135 158 148 157 141 135 154 178 173 177 195 202 210 193 180 316 268 304 267 232 239 215 175 178 151 123 76 93 77 83 79 77 83 41 32

GFSMA_con_3kmhel_036.txt.gz
Helicity
-15 21 -9 -11 -27 -35 13 37 25 6 14 27 10 12 11 15 83 101 90 132 155 146 141 152 157 146 125 104 113 105 93 78 67 57 52 46 28 18 -6 -2 7 -17 -5
0 24 21 8 1 50 25 28 17 19 13 36 32 20 26 40 35 136 106 134 187 227 210 213 205 202 177 138 135 135 126 133 111 93 82 74 68 59 44 25 -26 -37 -40
18 13 46 7 68 10 55 82 85 62 64 78 69 43 62 46 65 78 208 165 188 225 246 249 263 246 228 205 188 162 156 147 131 121 124 125 135 141 141 124 85 50 9
-25 0 -35 48 55 117 116 76 65 47 60 58 67 65 101 109 120 106 109 161 171 194 202 206 197 202 195 196 179 159 161 151 151 153 159 151 143 140 142 164 130 123 95
2 -23 -44 73 142 113 65 79 51 78 105 92 108 118 121 99 139 94 180 106 151 212 211 182 159 139 150 152 151 145 152 153 177 180 157 144 135 127 126 123 110 109 98
3 -2 -4 167 137 82 90 103 118 140 140 92 66 159 134 107 95 135 163 108 126 156 174 178 161 136 140 123 120 143 138 154 158 144 128 125 124 119 113 110 111 111 109
66 65 11 186 123 80 111 113 198 205 133 175 162 115 139 171 130 140 168 157 139 192 128 177 158 195 172 139 157 162 154 145 127 117 113 113 104 90 85 86 88 91 94
144 100 50 184 133 87 138 214 225 189 146 185 167 163 135 181 183 124 155 173 157 213 181 140 145 175 188 184 180 136 182 176 157 125 105 101 86 81 81 79 73 71 68
126 128 96 164 166 102 204 265 232 188 178 234 179 207 225 226 157 189 158 193 208 207 173 99 202 210 170 151 170 186 243 222 220 148 129 100 90 85 87 83 82 81 79
104 128 131 135 163 149 205 251 230 188 210 255 213 188 181 191 194 166 235 173 218 247 219 168 154 210 234 232 192 302 314 280 208 157 112 86 84 81 83 84 85 81 77
144 132 125 202 202 230 271 302 230 185 245 299 310 315 250 117 115 177 196 191 234 223 183 177 207 240 255 223 260 339 313 272 190 124 97 95 90 90 87 83 83 82 85
148 220 226 308 406 372 350 353 361 393 446 405 472 314 252 138 167 229 238 204 200 200 193 224 316 353 290 209 247 292 290 225 128 102 95 81 73 69 67 73 79 77 79
308 362 372 386 477 398 367 456 454 544 474 413 474 247 142 128 199 202 193 229 234 197 205 214 260 265 248 188 273 296 232 170 126 90 87 80 62 60 63 69 67 65 72
389 386 326 333 404 542 482 432 549 502 488 343 266 184 120 172 266 228 220 273 245 223 205 213 218 219 211 196 301 305 298 210 189 138 126 87 62 57 62 55 44 50 66
455 363 325 374 336 404 421 501 549 497 336 262 215 120 174 194 243 170 161 183 235 248 244 221 288 251 226 236 258 282 295 234 192 151 120 92 62 64 62 36 41 49 68
373 318 316 300 404 374 424 472 512 422 377 202 235 302 340 304 144 102 149 170 220 285 305 264 226 205 166 197 223 233 231 190 172 135 126 114 105 99 78 49 52 54 65
223 235 247 366 416 365 431 479 467 368 185 257 549 360 358 171 132 132 156 179 199 233 253 251 239 189 192 212 223 222 233 261 215 162 113 125 142 146 107 76 71 67 64
208 218 283 349 344 409 422 448 374 286 338 229 372 391 232 113 114 122 161 181 196 191 259 255 237 221 195 192 269 271 249 255 247 198 159 120 145 169 123 111 105 92 86
187 218 288 360 443 389 317 316 297 256 243 461 382 246 137 120 132 111 129 189 238 226 248 258 243 247 249 229 281 291 303 292 283 197 133 118 174 139 119 118 129 127 126
317 343 385 451 377 301 246 253 190 244 372 308 253 173 154 128 140 134 140 161 192 227 206 224 248 259 273 278 325 342 341 334 296 260 260 207 131 120 120 104 102 93 131
256 272 287 286 265 236 221 199 277 318 291 262 197 181 133 127 106 96 122 145 171 193 219 239 254 278 267 313 365 338 346 360 331 333 257 202 191 187 143 103 87 97 143
218 233 213 209 213 213 225 306 333 270 252 222 198 154 116 86 68 56 73 83 121 182 193 227 250 263 256 304 332 375 370 362 332 343 278 209 219 164 144 126 103 122 146
243 219 216 216 302 286 308 296 276 278 234 181 131 117 114 93 75 101 104 115 137 147 186 217 234 291 263 239 308 353 384 370 344 280 289 212 181 152 147 120 125 74 81
274 253 237 224 217 197 198 174 175 178 145 111 109 103 116 104 110 125 164 174 173 179 197 227 217 240 268 237 275 312 333 311 277 299 269 188 155 160 149 125 100 69 157
193 184 149 131 156 196 147 150 150 123 124 140 132 133 157 172 239 234 214 227 231 230 186 155 132 131 216 242 295 360 350 355 235 267 230 185 145 157 154 121 100 80 94
242 231 243 217 193 192 182 216 164 196 217 182 143 123 114 130 149 182 216 234 246 235 197 181 170 136 166 335 357 350 314 331 343 262 224 187 158 190 120 92 104 80 87

GFSMA_con_3kmhel_039.txt.gz
Helicity
-21 -28 5 20 9 -7 -12 12 19 17 13 27 27 31 52 28 55 49 46 101 99 134 140 138 144 145 121 118 112 99 80 82 80 76 69 58 55 46 51 33 -19 -29 -6
-71 -1 6 5 -15 -26 4 23 24 12 31 43 46 48 47 48 37 70 97 125 163 160 158 157 175 152 130 125 132 123 121 116 103 96 96 98 117 116 108 108 75 58 19
33 -53 29 -47 -31 20 44 42 40 52 55 51 52 53 55 73 84 93 134 142 156 206 198 206 218 221 212 184 172 151 130 123 122 128 130 133 136 134 130 125 111 93 83
-17 8 -20 -13 66 58 95 102 93 91 85 71 58 62 73 75 87 129 149 148 157 158 183 190 182 175 188 193 176 157 135 147 152 164 154 146 145 135 126 123 119 109 100
-33 -11 -30 22 86 124 128 114 97 103 104 102 89 95 119 114 88 89 140 124 162 208 184 173 160 150 143 156 163 142 123 142 163 172 162 155 152 140 126 114 104 91 79
-61 -22 -17 33 141 143 118 112 107 115 128 135 123 148 143 147 124 137 123 153 162 220 191 178 167 138 140 165 155 123 112 130 152 152 163 161 153 139 119 103 92 79 65
-12 -2 37 101 176 175 123 130 151 161 187 180 217 196 135 137 187 175 162 164 176 200 181 159 159 159 172 162 149 120 118 138 152 149 143 119 114 103 92 78 65 57 54
-5 11 54 147 161 178 155 163 216 237 201 204 238 228 234 248 209 175 186 171 194 219 239 183 188 181 163 166 143 106 127 133 152 141 130 113 99 88 80 75 72 77 79
23 -6 68 163 142 152 167 191 274 286 239 224 257 257 314 335 282 196 136 144 196 249 245 223 189 219 200 188 140 111 151 152 164 169 133 124 108 95 85 78 74 72 71
20 48 92 189 198 171 197 218 303 333 300 298 301 286 247 300 416 419 206 142 189 237 227 225 240 215 220 245 179 165 246 229 220 183 136 115 93 81 82 77 74 75 78
85 171 126 188 234 237 293 407 371 403 414 329 320 342 362 360 448 444 224 158 185 228 223 253 276 285 273 224 278 284 320 324 245 199 141 102 87 79 75 79 76 76 75
184 221 190 236 249 402 449 508 589 382 523 437 451 462 589 489 423 328 183 158 202 203 224 246 268 270 279 328 340 343 341 272 235 196 136 109 42 46 67 79 75 74 70
176 190 232 304 385 480 473 475 449 502 410 461 544 460 380 379 343 218 167 194 251 253 240 207 231 270 278 273 380 331 262 280 246 183 145 80 38 31 59 69 71 68 67
150 208 286 337 385 458 487 475 441 394 404 477 418 273 341 244 264 244 264 268 240 264 235 175 205 207 230 297 331 311 346 277 234 222 162 92 47 29 44 60 52 46 53
299 171 327 358 416 469 441 417 388 407 474 455 339 260 255 194 320 229 293 229 288 297 262 167 212 196 230 255 292 356 353 247 210 201 151 99 41 33 58 56 49 43 45
362 313 377 417 401 370 374 344 388 445 456 385 339 247 248 372 302 275 228 182 226 251 280 203 180 162 153 186 211 277 267 222 234 246 194 155 92 58 68 70 62 43 31
330 345 347 282 306 325 336 353 382 396 390 329 268 296 363 424 322 158 226 171 173 214 264 223 199 188 231 202 199 256 258 285 305 248 247 202 151 113 108 101 81 42 31
301 277 233 262 301 344 332 340 350 346 303 305 301 409 358 308 173 153 172 160 172 171 227 227 233 232 221 204 209 274 286 312 350 299 273 241 184 171 145 127 112 85 69
215 209 244 274 312 323 329 312 285 315 254 300 326 358 244 202 183 173 179 165 145 140 197 267 239 212 214 221 227 289 313 321 371 287 308 269 222 210 166 128 150 119 87
257 259 277 318 329 323 282 247 263 249 246 255 271 239 247 241 191 157 138 135 131 175 199 208 208 217 246 217 276 273 274 389 343 353 336 351 323 242 178 159 141 105 87
290 300 341 371 360 314 270 249 249 264 284 237 244 233 214 160 121 93 121 98 119 147 170 198 231 229 248 293 318 254 307 258 311 371 464 474 392 295 257 195 149 107 98
245 277 302 296 289 262 243 252 268 279 264 253 231 196 146 98 101 95 102 136 176 202 193 227 234 261 254 291 274 282 284 317 276 333 413 344 396 287 245 202 130 124 119
254 249 251 246 244 263 284 298 301 271 259 213 175 144 112 106 131 134 142 150 145 156 168 212 241 254 256 244 218 209 250 228 261 352 414 344 308 270 209 156 120 137 107
241 235 252 264 295 264 289 267 257 215 190 150 125 132 174 189 178 154 119 103 115 133 159 192 232 256 267 261 245 205 179 191 315 379 392 268 259 242 169 153 125 131 114
257 249 234 249 249 207 215 228 211 196 185 217 202 178 162 138 155 182 129 136 151 149 168 193 203 190 178 157 159 176 195 246 305 312 373 335 203 191 168 166 174 113 97
255 261 277 283 289 289 254 236 254 236 230 197 182 157 171 170 171 177 177 178 155 156 175 161 157 152 160 170 105 160 155 197 257 313 293 305 238 225 182 180 167 134 98

GFSMA_con_3kmhel_042.txt.gz
Helicity
59 24 25 3 13 23 23 22 14 20 33 38 54 39 24 29 31 23 9 55 85 105 105 107 106 98 76 95 79 71 67 71 62 59 59 69 94 98 84 76 51 53 30
18 24 13 -16 8 36 11 11 6 25 27 40 55 54 38 42 43 36 23 50 106 113 118 138 143 135 102 99 97 90 102 100 88 83 91 99 112 116 114 118 106 88 78
22 24 -5 21 0 16 -4 19 46 50 45 40 56 80 82 67 52 42 56 81 99 110 146 158 156 149 139 134 119 108 98 105 117 129 124 117 127 134 144 138 124 114 102
37 25 32 22 -14 -8 12 43 65 52 54 53 68 88 98 101 79 70 76 97 122 131 169 199 190 172 156 151 139 128 118 119 126 143 131 135 142 150 144 133 132 131 127
76 22 53 -26 -15 36 66 96 92 115 80 67 77 98 117 114 107 113 120 120 126 143 155 158 171 163 146 142 139 140 129 117 123 131 136 146 151 149 143 130 124 123 121
-51 -47 -29 21 104 122 131 135 132 107 116 104 113 132 114 98 154 161 153 154 149 154 162 156 170 155 140 123 145 132 124 118 113 111 131 147 142 146 137 118 110 104 101
-61 -36 38 88 124 160 147 130 150 145 146 179 226 193 174 161 162 168 192 201 205 170 195 188 173 171 160 134 134 110 95 92 93 103 119 129 109 97 81 72 70 72 74
-33 -22 51 43 102 116 157 182 201 212 203 236 263 260 253 255 230 198 202 250 244 245 256 195 202 207 195 195 157 99 72 76 68 81 103 103 76 64 61 65 68 78 82
-43 -26 -1 30 99 139 179 206 236 277 296 249 259 265 337 292 295 255 244 231 298 368 311 238 235 234 210 217 174 133 97 81 52 52 81 76 61 61 51 53 63 71 78
-28 6 41 66 105 148 165 206 238 275 318 409 297 207 379 388 313 240 288 292 302 326 253 269 297 284 270 283 216 180 154 134 81 64 69 65 75 71 62 48 62 74 80
-15 50 72 116 119 143 161 225 278 353 366 449 408 305 347 342 372 395 340 268 286 214 188 232 273 309 336 309 285 232 191 200 166 120 95 103 94 79 65 23 37 61 78
-37 34 85 138 163 189 218 272 316 393 430 426 397 398 371 383 480 392 379 269 216 127 114 203 257 251 277 316 310 255 239 269 261 200 163 142 111 99 59 12 23 42 78
36 108 167 169 134 187 255 340 384 405 403 387 370 361 364 374 366 307 281 204 203 164 163 198 198 208 241 291 338 343 313 356 339 289 212 168 136 106 50 28 21 39 64
111 239 222 178 192 202 264 391 449 427 411 370 332 346 386 310 298 218 233 227 236 222 241 203 175 181 179 241 290 299 368 348 338 303 247 185 166 124 74 52 24 34 62
148 272 222 254 204 274 290 445 491 413 417 390 353 381 357 247 283 207 203 358 268 238 224 191 212 172 171 190 204 293 346 299 306 291 244 197 189 135 98 51 41 41 55
282 197 133 209 223 220 372 464 428 391 401 382 382 409 322 261 240 330 405 421 269 258 262 255 167 157 143 171 168 259 301 270 267 232 234 224 218 171 117 96 73 60 58
305 22 80 173 204 279 321 347 373 372 363 350 342 339 319 309 344 352 318 236 190 192 244 214 184 164 196 171 171 214 223 254 279 226 250 250 254 207 145 124 119 99 81
261 80 105 145 222 329 323 295 335 320 330 332 313 306 285 291 370 303 226 185 208 190 217 222 209 200 171 166 169 196 228 269 319 314 263 301 292 261 293 178 165 155 115
204 204 210 252 250 255 291 305 316 303 295 305 301 310 268 295 266 247 202 147 203 174 196 245 196 179 181 183 168 165 197 196 275 216 205 245 228 261 298 259 226 185 140
300 253 248 262 274 303 288 302 298 263 275 277 280 271 251 232 262 234 192 184 169 193 168 177 177 193 205 166 217 202 199 221 252 260 258 233 257 278 317 292 266 187 166
263 281 330 332 312 310 302 293 264 286 296 269 287 263 236 239 249 244 212 183 164 152 169 187 193 185 196 207 228 248 278 261 251 298 283 289 334 322 335 360 302 145 141
354 349 332 336 337 314 276 264 262 260 272 280 269 278 291 239 258 265 215 224 210 210 205 199 205 217 221 234 250 277 277 282 304 256 274 237 249 314 412 463 385 182 121
324 299 308 317 325 295 247 249 285 315 319 309 309 313 280 241 212 188 186 156 154 154 150 160 196 213 204 225 247 253 271 280 285 278 352 256 323 271 385 408 363 92 100
293 296 309 297 301 281 290 339 407 386 373 354 315 276 252 229 224 208 169 143 119 118 143 173 203 194 221 225 247 244 247 224 209 255 324 258 227 271 284 353 160 106 116
317 308 276 274 296 321 357 389 389 360 342 325 301 270 242 248 230 219 180 172 148 145 169 191 172 157 161 175 201 249 243 230 214 199 225 264 177 234 261 269 147 99 137
297 285 305 338 384 387 356 318 310 310 350 308 290 274 272 242 238 208 181 171 178 171 156 138 132 121 110 139 149 212 233 256 226 210 197 246 175 255 218 170 143 173 187

GFSMA_con_3kmhel_045.txt.gz
Helicity
103 33 42 40 23 56 44 37 51 56 50 49 39 30 7 4 -7 -2 -3 10 31 56 71 99 104 88 75 63 57 47 52 55 57 58 63 70 69 59 58 55 63 71 68
82 48 65 33 30 64 21 24 32 34 43 54 37 25 23 19 14 25 10 -16 17 34 60 109 130 110 89 83 71 58 78 71 65 80 91 94 89 87 86 84 90 84 74
64 78 48 40 28 41 43 50 50 53 52 56 42 30 31 36 41 45 36 9 24 51 74 116 136 117 98 104 99 92 95 83 87 106 104 105 103 93 89 101 110 109 94
56 107 65 40 44 47 51 48 50 50 58 42 53 48 57 65 74 72 62 50 58 76 87 121 132 132 116 111 105 100 101 98 94 107 112 124 111 89 87 95 106 113 107
79 72 31 57 63 64 38 70 62 75 68 51 58 81 78 88 99 108 91 77 86 114 125 141 161 173 146 118 104 89 99 96 97 95 110 112 98 81 76 88 103 105 106
159 68 67 -9 -11 28 49 100 91 90 89 98 93 100 111 122 131 125 103 110 117 130 152 179 171 150 138 111 88 78 84 91 91 85 93 95 77 65 71 82 89 93 89
122 66 1 -32 19 9 68 90 125 136 129 144 157 151 140 144 141 150 149 140 144 157 183 195 201 170 134 116 90 68 62 75 77 64 65 56 54 51 49 55 48 51 53
37 2 -25 27 57 103 116 156 168 182 142 161 188 198 183 172 186 195 215 195 161 205 213 187 203 193 144 169 147 80 62 66 66 62 51 39 37 26 18 26 16 7 31
3 5 -26 -62 60 115 130 164 198 214 221 184 210 246 236 150 157 187 245 274 255 240 212 219 217 198 174 186 185 150 122 100 71 68 58 40 27 13 9 8 1 -6 8
-95 -15 -13 -47 114 130 135 164 204 239 266 273 256 237 294 196 185 217 176 233 248 217 232 233 242 208 201 223 213 207 186 160 124 86 74 59 37 23 16 27 26 16 21
-235 -118 -59 24 118 153 151 178 208 260 272 281 353 324 325 292 281 306 216 248 254 242 216 221 217 222 247 267 283 255 201 210 180 138 91 83 62 49 35 49 41 22 27
-228 -129 -71 38 98 151 165 186 238 255 277 283 329 355 341 323 327 376 305 243 257 254 226 220 216 218 257 284 249 243 236 247 217 205 171 133 109 90 68 68 67 47 29
-146 -91 13 64 135 169 171 224 237 216 296 323 340 316 347 352 353 295 340 279 279 231 173 140 142 154 203 244 238 231 228 246 253 280 257 222 176 149 121 107 101 68 34
-92 23 51 120 180 218 147 147 205 183 215 261 273 342 337 307 353 326 350 243 273 232 254 173 202 147 173 192 189 187 247 214 239 274 284 266 251 223 172 138 119 91 61
35 60 76 124 194 220 132 169 160 169 240 293 266 311 327 328 326 361 285 335 270 279 282 286 188 169 129 159 144 188 221 198 208 233 269 287 281 265 226 189 168 137 101
76 112 181 196 199 200 186 170 226 223 265 302 362 344 339 350 359 311 315 346 335 307 329 264 202 170 136 165 155 187 190 175 194 228 257 270 278 267 259 235 226 188 134
206 196 211 156 169 75 115 155 149 186 218 331 362 348 337 404 375 317 345 301 315 305 275 229 182 198 183 149 142 153 166 197 216 168 186 230 250 280 290 269 238 232 143
259 265 294 141 60 -60 0 61 172 244 274 350 359 359 394 364 355 304 328 309 254 270 258 212 183 186 164 157 153 149 148 171 197 162 169 162 176 180 247 305 268 366 160
282 463 171 -84 -23 51 131 194 252 294 311 316 336 312 285 294 283 325 307 267 288 267 259 223 178 172 168 164 142 116 118 115 155 151 167 206 235 201 172 190 225 296 153
358 318 211 209 139 196 196 243 267 294 309 301 301 312 288 280 314 301 330 346 302 261 208 201 198 189 181 128 148 164 156 144 156 154 167 188 175 164 171 170 211 226 204
311 333 310 286 245 282 301 300 295 316 321 318 294 291 314 352 426 389 324 278 251 214 219 217 207 215 181 161 164 168 206 204 195 237 223 239 256 262 246 190 164 149 199
347 377 365 371 354 317 292 300 332 323 295 292 310 360 428 419 400 372 320 311 213 231 233 222 201 193 171 161 172 198 221 220 241 226 266 262 267 264 286 290 195 156 187
384 363 352 350 334 301 296 311 335 324 320 340 389 450 464 435 386 335 324 250 233 222 197 183 196 187 188 178 194 201 199 220 249 247 239 238 202 219 240 243 161 149 192
350 353 354 310 326 318 322 352 365 387 418 444 463 459 441 415 353 275 258 257 226 199 189 190 176 166 174 170 181 180 194 200 221 236 220 282 185 189 173 206 173 177 237
384 332 282 320 361 373 362 386 432 477 525 545 508 454 388 342 300 259 256 236 215 199 174 179 173 161 166 172 184 219 224 244 228 218 242 266 201 183 167 183 217 185 187
336 372 400 387 395 410 401 427 445 451 460 431 404 377 337 334 306 261 220 218 228 205 184 167 163 161 156 151 164 232 221 223 240 277 281 242 184 152 170 153 147 214 212

GFSMA_con_3kmhel_048.txt.gz
Helicity
78 93 70 61 37 33 68 98 59 39 41 42 48 28 -11 -33 -43 -44 -35 14 21 36 47 49 43 56 60 47 44 46 56 50 49 51 58 65 62 59 56 54 47 44 53
89 89 70 68 30 20 45 69 53 46 40 50 35 8 5 -13 -19 -24 -19 -5 9 5 31 61 69 69 68 56 58 58 64 60 57 65 78 85 90 81 73 60 48 52 56
72 84 65 48 24 40 67 89 84 74 66 43 33 24 29 14 -4 -1 1 4 -2 5 20 66 94 82 73 67 66 70 74 67 66 85 88 98 94 85 80 68 65 70 72
81 50 48 43 39 74 64 82 82 71 52 39 38 39 29 29 35 16 24 35 39 41 36 69 96 96 79 76 69 67 60 65 68 85 88 98 92 90 82 67 59 61 61
66 52 58 50 81 101 69 90 68 78 60 58 49 35 51 56 52 61 62 70 75 72 77 74 110 130 99 79 63 45 46 65 72 81 86 85 78 78 68 48 28 23 37
79 64 76 88 104 75 80 94 89 76 57 72 74 66 65 69 84 86 86 98 104 93 97 104 140 142 138 93 63 42 45 65 67 75 78 66 52 50 48 31 14 21 34
90 88 92 88 85 63 60 85 110 86 84 100 118 86 64 80 110 122 123 130 136 109 123 122 152 162 147 104 64 45 44 57 65 68 65 56 41 43 36 17 6 4 1
114 112 137 90 54 1 16 101 124 128 109 122 129 113 86 107 141 129 139 166 148 160 160 133 164 153 157 159 101 61 41 52 57 66 71 64 53 41 28 17 4 -14 -22
161 91 27 38 -29 68 55 121 146 153 150 138 166 156 107 79 104 119 123 155 151 196 180 184 174 157 167 164 117 87 77 80 61 63 80 74 73 49 31 10 5 -3 -25
-12 -27 -4 34 40 110 108 114 148 173 199 192 192 155 183 173 159 105 104 111 153 141 215 189 191 198 230 235 181 154 142 118 107 81 68 82 92 69 29 22 23 18 17
20 14 12 4 39 93 106 129 151 171 227 243 311 290 262 230 250 260 172 198 200 165 183 178 199 200 192 233 260 219 176 151 143 136 93 90 98 104 73 69 57 47 42
-129 -180 -124 15 29 76 124 150 173 198 216 245 253 267 295 250 267 313 321 272 258 165 209 203 235 216 199 255 192 180 178 169 171 168 167 144 119 117 125 110 85 79 68
-260 -196 -92 -19 33 63 111 177 198 184 198 216 195 200 232 225 261 292 323 261 270 205 265 219 210 185 179 161 176 154 160 192 194 186 180 182 178 165 148 130 125 118 110
-132 -123 -143 -70 8 55 110 168 188 153 138 187 178 183 192 200 303 335 335 316 286 269 321 256 225 163 144 188 151 133 171 159 177 191 187 178 187 189 197 201 168 141 140
-39 -21 15 37 71 92 133 154 178 116 77 103 156 113 178 228 306 333 328 306 338 311 266 308 269 247 206 223 164 166 194 192 184 188 194 172 172 185 193 205 211 211 192
21 46 69 88 113 120 92 103 154 179 193 19 84 143 210 279 329 323 340 300 334 303 325 284 302 236 191 175 117 118 163 156 153 146 152 158 161 146 149 176 200 213 210
150 108 111 148 105 119 175 213 166 223 56 143 179 169 195 315 349 371 397 353 387 331 391 294 297 252 208 153 131 132 152 184 180 138 145 141 147 154 158 159 172 177 186
232 158 192 102 73 212 244 273 141 53 82 126 144 176 280 315 333 356 323 351 296 277 350 337 288 240 186 183 152 138 150 158 161 112 101 110 122 137 162 176 189 195 195
116 17 80 68 149 355 310 20 -4 42 66 126 224 243 289 321 339 394 333 319 342 342 355 333 304 220 201 166 151 153 159 146 129 86 79 92 106 119 138 158 186 198 214
146 130 204 235 161 290 243 156 150 139 182 255 271 272 287 321 339 344 363 329 368 350 313 284 230 209 182 153 142 162 157 127 125 99 109 128 110 110 124 132 138 134 142
213 197 219 228 255 237 220 234 218 230 252 266 260 287 306 344 350 346 361 356 347 317 294 250 224 219 198 185 179 163 160 136 103 95 112 127 139 172 193 166 130 110 110
196 210 252 301 351 321 291 266 273 299 307 308 328 377 427 453 452 457 424 387 308 280 255 227 228 224 206 192 163 156 146 131 118 150 165 159 167 195 196 179 124 114 94
306 289 301 332 303 283 246 261 291 326 335 344 390 426 471 441 440 413 397 345 330 311 211 219 227 212 193 159 154 157 149 153 178 155 137 193 170 205 206 212 127 103 91
339 323 308 346 316 274 288 330 377 380 415 422 421 440 447 428 400 365 362 339 266 225 241 212 191 167 150 148 143 137 144 145 160 164 138 241 199 227 228 225 112 92 91
346 347 346 344 337 343 345 378 440 480 518 523 518 496 471 462 407 339 317 280 305 276 213 220 195 177 164 145 149 189 185 204 190 194 167 184 182 213 243 197 149 97 126
427 442 495 463 429 402 375 399 428 455 492 507 527 502 463 421 381 319 280 295 307 265 227 214 188 187 174 175 183 191 189 204 215 217 221 219 225 212 203 153 143 103 93